Location: Casper
(42.8670°N, 106.3130°W)
Time: 15:36:46
(UTC-06:00)

Daily predictions for brighter satellites

Satellite Brightness Start Highest point End
(mag) Time Altitude Azimuth Time Altitude Azimuth Time Altitude Azimuth
Cosmos 1553 Rocket 4.0 20:10:28 10° N 20:16:35 65° E 20:22:36 10° SSE
S3M 4.1 20:10:28 10° N 20:16:42 61° E 20:22:58 10° SSE
USA 267 3.4 20:13:01 10° SE 20:19:35 84° SW 20:26:11 10° NW
Resurs 01 Rocket 1.8 20:16:09 10° SSE 20:20:30 56° ENE 20:24:53 10° N
NOSS 2-3 (D) 3.9 20:16:30 10° SSW 20:21:03 59° ESE 20:26:20 10° NE
Cosmos 2151 Rocket 3.6 20:16:48 10° S 20:21:07 64° E 20:25:30 10° NNE
BREEZE-M DEB (TANK) 2.6 20:19:17 10° SW 20:21:53 48° SE 20:28:05 10° ENE
Cosmos 1602 3.6 20:20:06 10° S 20:23:55 80° E 20:27:46 10° N
Cosmos 2263 Rocket 2.3 20:21:11 10° NNW 20:26:52 65° ENE 20:32:29 10° SE
Envisat 3.3 20:22:41 10° SE 20:27:32 47° ENE 20:32:24 10° N
Cosmos 1536 Rocket 3.5 20:23:40 10° N 20:27:59 65° E 20:32:18 10° SSE
Cosmos 1741 Rocket 4.0 20:23:08 10° NNW 20:28:24 73° ENE 20:33:39 10° SSE
BREEZE-M DEB (TANK) 3.6 20:28:59 10° WNW 20:32:02 58° SSW 20:43:30 10° SE
Cosmos 1844 Rocket 4.3 20:28:22 10° N 20:32:24 19° NE 20:36:24 10° E
Lacrosse 5 1.9 20:28:05 10° SSW 20:33:06 65° SE 20:38:08 10° NE
Cosmos 2322 Rocket 2.3 20:29:19 10° SSW 20:35:01 90° SE 20:40:45 10° NNE
Atlas Centaur 2 4.2 20:31:12 10° WSW 20:38:08 28° SSW 20:44:32 10° SE
Helios 1B rocket 3.8 20:38:37 10° NE 20:41:35 19° E 20:44:31 10° SE
ATLAS 2AS CENTAUR R/B 3.0 20:39:46 10° SSW 20:47:23 72° ESE 20:55:29 10° NE
SL-16 R/B 2.6 20:43:05 10° SSW 20:48:44 72° WNW 20:54:26 10° NNE
H-2A R/B 4.0 20:47:37 10° ENE 20:49:17 12° ENE 20:50:58 10° NE
Cosmos 2219 Rocket 3.8 20:50:02 12° E 20:50:28 12° E 20:52:43 10° ENE
Cosmos 1110 Rocket 4.1 20:51:39 10° S 20:56:37 52° ESE 21:01:39 10° NNE
Meteor 1-11 Rocket 4.0 20:51:11 10° SSW 20:57:00 77° W 21:02:43 10° N
Delta 2 Rocket 4.4 20:53:53 10° SW 20:57:17 28° S 20:59:35 18° SE
Abrixas rocket 3.4 20:54:34 10° WNW 20:57:38 36° NNE 21:00:07 14° ENE
NOSS 2-3 (E) 4.3 20:53:11 10° SW 20:57:53 68° NW 21:03:25 10° NNE
SeaSat 1 2.6 20:56:38 10° NE 21:01:26 50° ESE 21:06:12 10° S
Cosmos 405 4.5 21:01:07 18° E 21:01:26 19° E 21:04:00 10° NE
Cosmos 2322 3.9 20:56:50 10° S 21:02:16 50° ESE 21:07:44 10° NE
Okean 2 3.9 20:59:00 10° N 21:02:54 41° ENE 21:05:30 18° SE
Cosmos 2360 Rocket 2.1 21:00:42 10° SSW 21:06:16 66° ESE 21:11:51 10° NNE
Meteor 1-23 Rocket 4.2 21:01:54 10° N 21:07:31 85° E 21:13:06 10° S
Cosmos 1331 Rocket 4.0 21:02:34 10° S 21:07:38 58° ESE 21:12:47 10° NNE
Cosmos 1975 4.1 21:09:21 21° ESE 21:09:55 22° E 21:13:01 10° NE
Cosmos 220 Rocket 4.3 21:10:35 10° NNW 21:14:52 67° WSW 21:18:48 12° S
CZ-4B DEB 3.3 21:14:32 30° E 21:14:56 32° ENE 21:17:33 10° N
COSMOS 2428 3.3 21:10:22 10° SSE 21:15:30 35° ESE 21:20:38 10° NE
USA 186 4.0 21:19:43 10° SSW 21:22:38 27° W 21:25:33 10° NW
Cosmos 482 Debris 4.0 21:20:07 10° SW 21:24:20 46° SE 21:24:55 40° ESE
Cosmos 1025 Rocket 2.9 21:20:10 10° N 21:24:28 86° E 21:27:32 19° S
Cosmos 1536 4.3 21:23:16 10° SSW 21:27:06 40° WNW 21:30:57 10° N
NOAA 11 4.3 21:24:44 22° SE 21:28:11 59° ENE 21:33:36 10° N
Meteor 1-5 Rocket 4.4 21:22:57 10° SSW 21:28:14 69° WNW 21:33:32 10° N
Cosmos 2333 Rocket 3.4 21:29:06 21° E 21:29:06 21° E 21:32:40 10° NE
Tiangong 1 3.1 21:27:10 10° WSW 21:28:44 14° SSW 21:28:58 14° SSW
Okean 1 Rocket 3.6 21:26:22 10° SSW 21:30:39 58° W 21:35:01 10° N
BREEZE M DEB (TANK) 3.0 21:22:50 10° SW 21:30:58 49° SSE 21:32:14 33° E
Cosmos 1939 Rocket 3.6 21:27:31 11° S 21:31:14 51° W 21:35:04 10° NNW
Cosmos 2333 4.4 21:28:27 10° S 21:33:48 45° ESE 21:39:08 10° NE
Cosmos 1437 Rocket 4.4 21:36:51 20° ENE 21:36:51 20° ENE 21:38:49 10° NE
Cosmos 2237 Rocket 4.0 21:42:11 15° ENE 21:42:11 15° ENE 21:43:40 10° ENE
Helios 1A 3.2 21:37:47 22° S 21:40:27 69° WSW 21:44:43 10° NNW
NOSS 3-2 (A) 4.2 21:33:24 10° NNW 21:40:45 59° NE 21:45:10 28° ESE
USA 238 DEB 3.8 21:37:16 10° NW 21:44:24 83° WSW 21:48:31 28° SSE
USA 238 3.8 21:37:22 10° NW 21:44:30 84° WSW 21:48:36 28° SSE
Cosmos 1244 Rocket 4.4 21:38:40 10° S 21:44:47 77° E 21:50:56 10° N
SL-8 R/B 3.7 21:40:53 10° WNW 21:45:40 72° SSW 21:47:12 42° SE
Cosmos 1238 Rocket 4.0 21:39:11 10° N 21:45:54 71° E 21:49:12 29° SSE
YAOGAN 6 3.6 21:44:35 20° SSW 21:46:38 42° W 21:50:00 10° NNW
Cosmos 1818 3.5 21:43:43 10° SSW 21:49:04 65° ESE 21:54:29 10° NE
ERS-1 Rocket 2.9 21:46:58 33° SSE 21:49:14 80° ENE 21:54:17 10° NNW
SPOT 1/Viking Rocket 4.2 21:49:27 33° E 21:50:36 38° ENE 21:55:24 10° N
Okean 1-7 Rocket 4.3 21:46:55 10° NNW 21:51:18 52° W 21:54:27 18° SSW
ATLAS 3B R/B 2.9 21:47:04 10° NW 21:53:41 63° WSW 21:57:14 28° S
Meteor 1-29 2.9 21:50:24 10° N 21:53:49 77° WNW 21:54:32 52° SSW
SL-08 RB Rocket 3.9 21:53:48 45° ESE 21:54:29 49° ENE 21:58:52 10° N
Cosmos 1066 Rocket 4.1 21:49:52 10° N 21:55:20 75° E 21:57:29 38° SSE
ARGOS 3.1 21:54:02 40° SE 21:55:56 67° ENE 22:01:17 10° N
Molniya-1 3.8 21:53:26 10° NW 21:56:20 83° SW 21:56:22 83° SW
BREEZE-M DEB 3.6 21:48:20 10° WNW 21:56:56 54° N 21:58:04 38° ENE
Resurs 01 Rocket 4.4 21:54:55 10° SW 21:57:20 14° W 21:59:45 10° WNW
H-2A R/B 4.5 21:57:37 10° NE 21:57:37 10° NE 21:58:12 10° NE
SL-08 R/B 4.5 21:55:19 28° SSE 21:58:42 65° E 22:04:56 10° NNE
Cosmos 1743 3.7 22:04:31 35° NE 22:04:31 35° NE 22:07:03 10° NNE
YAOGAN 11 4.3 22:04:45 52° ENE 22:04:51 52° ENE 22:09:03 10° N
USA 245 3.5 22:09:10 67° SE 22:09:42 78° ENE 22:13:41 10° N
Cosmos 2263 Rocket 4.5 22:06:24 10° WNW 22:10:12 19° W 22:13:59 10° SW
SPOT 5 2.7 22:11:06 63° SE 22:11:42 73° ENE 22:16:17 10° N
BREEZE M DEB (TANK) 4.0 22:08:00 10° WNW 22:13:58 36° N 22:14:51 31° NE
Aureole 3 Rocket 4.3 22:07:25 10° N 22:15:31 77° W 22:18:24 34° S
COSMOS 2455 4.5 22:11:04 10° N 22:15:37 22° NE 22:17:33 19° ENE
Lacrosse 5 3.7 22:11:54 10° W 22:16:24 31° NNW 22:20:55 10° NE
Cosmos 1844 Rocket 2.7 22:11:15 10° NNW 22:16:56 76° WSW 22:18:29 49° S
Helios 1B rocket 3.9 22:13:13 10° N 22:16:59 36° WNW 22:20:45 10° SW
Cosmos 1626 Rocket 4.1 22:13:33 10° N 22:17:04 44° NE 22:17:04 44° NE
Cosmos 2278 Rocket 2.6 22:13:48 10° NNW 22:19:17 46° ENE 22:20:01 44° E
MetOp-B 4.4 22:19:06 39° SSW 22:21:01 63° WSW 22:26:21 10° NNW
NOSS 3-2 (C) 4.0 22:13:49 10° NW 22:21:21 77° NE 22:24:12 44° SE
NOSS 0 Rocket 4.0 22:22:04 51° ESE 22:22:04 51° ESE 22:28:05 10° NE
Cosmos 1892 Rocket 4.2 22:17:52 10° NNW 22:22:09 50° W 22:23:06 42° SW
Landsat 7 4.1 22:27:50 54° NE 22:27:50 54° NE 22:32:10 10° N
H-2A R/B 1.8 22:27:33 75° SSE 22:27:58 87° ENE 22:32:57 10° NNW
Cosmos 1992 Rocket 4.4 22:29:34 48° ENE 22:29:34 48° ENE 22:33:39 10° NNE
Meteor 1-21 4.1 22:23:04 10° N 22:28:42 68° ENE 22:29:14 64° ESE
Cosmos 968 Rocket 4.3 22:28:17 10° N 22:32:43 37° NE 22:32:43 37° NE
Cosmos 2219 Rocket 2.1 22:31:38 44° SSW 22:33:33 90° NW 22:39:14 10° NNE
Abrixas rocket 4.4 22:31:14 10° WNW 22:32:42 24° WNW 22:32:42 24° WNW
Cosmos 1544 Rocket 4.4 22:34:25 38° WSW 22:35:35 47° WNW 22:39:54 10° N
Cosmos 1745 Rocket 4.0 22:35:31 42° SSW 22:37:42 79° W 22:43:54 10° N
Meteor 2-9 Rocket 4.4 22:41:01 57° ENE 22:41:01 57° ENE 22:46:03 10° NNE
CENTAUR R/B 3.6 22:33:35 10° NNW 22:41:05 49° NE 22:43:45 38° E
Terra 2.4 22:43:40 48° NE 22:43:40 48° NE 22:47:30 10° N
Timation 1 Rocket 4.2 22:37:14 10° NNW 22:43:16 78° ENE 22:43:42 73° ESE
Cosmos 1455 Rocket 4.2 22:46:55 36° WSW 22:47:43 40° WNW 22:51:57 10° N
NOSS 3-4 (A) 3.4 22:42:43 10° SW 22:49:00 85° NW 22:55:32 10° NE
NOSS 3-4 (C) 3.4 22:43:50 15° SW 22:49:06 86° NW 22:55:38 10° NE
SL-16 R/B 4.1 22:53:30 17° NE 22:53:30 17° NE 22:54:56 10° NE
GP-B 4.0 22:50:39 10° N 22:53:46 45° N 22:53:46 45° N
COSMOS 2428 4.1 22:54:26 10° WSW 22:59:42 37° WNW 23:05:00 10° N
Cosmos 1844 4.4 22:56:50 10° NW 23:02:11 42° WSW 23:02:38 42° WSW
Cosmos 2333 Rocket 2.7 23:11:01 46° WSW 23:12:17 56° WNW 23:17:51 10° NNE
Cosmos 2237 Rocket 2.5 23:23:58 62° NNW 23:23:58 62° NNW 23:29:04 10° NNE
Cosmos 2369 Rocket 4.3 23:20:28 10° N 23:23:44 15° NE 23:24:27 15° NE
Cosmos 1980 4.2 23:30:32 54° WNW 23:30:39 54° WNW 23:36:14 10° NNE
H-2A R/B 3.8 23:34:44 31° NNW 23:34:44 31° NNW 23:37:04 10° NNW
ATLAS CENTAUR R/B 4.0 23:36:16 10° NNW 23:37:06 16° NNW 23:37:06 16° NNW
Cosmos 2297 4.5 23:47:27 10° NNW 23:51:32 48° NW 23:51:32 48° NW
